When you browse on this site, cookies collect data to enhance your experience and personalize the content and advertising you see.
Visit our Privacy Policy to learn more. By continuing to use the site, you agree to this use of cookies and data.
  • In Hungary
  • List of Countries
  • For 7 days
  • Water Temperature
  • Satellite Maps
  • Weather Map
  • News
  • Weather Widgets
  • user-avatar
    Login

    Hourly Weather Colleferro

    Today, 22 January, Tuesday

    Time Temperature Precipitation Wind Pressure Humidity
    00:00 +5°C° 0.3 mm 3 mps 719 mmHg 84%
    01:00 +5°C° 0.3 mm 3 mps 718 mmHg 82%
    02:00 +5°C° 1 mm 3 mps 718 mmHg 83%
    03:00 +5°C° 1 mm 3 mps 718 mmHg 84%
    04:00 +5°C° 1 mm 3 mps 717 mmHg 85%
    05:00 +6°C° 0.3 mm 2 mps 717 mmHg 85%
    06:00 +6°C° 0.3 mm 2 mps 717 mmHg 85%
    07:00 +5°C° 0.3 mm 2 mps 716 mmHg 85%
    08:00 +6°C° 0.1 mm 2 mps 716 mmHg 84%
    09:00 +6°C° 0.1 mm 2 mps 716 mmHg 83%
    10:00 +7°C° 0.1 mm 2 mps 717 mmHg 82%
    11:00 +7°C° 0.4 mm 2 mps 716 mmHg 85%
    12:00 +7°C° 0.4 mm 2 mps 716 mmHg 88%
    13:00 +7°C° 0.4 mm 2 mps 716 mmHg 91%
    14:00 +6°C° 1 mm 2 mps 716 mmHg 92%
    15:00 +6°C° 1 mm 2 mps 715 mmHg 92%
    16:00 +5°C° 1 mm 2 mps 715 mmHg 93%
    17:00 +5°C° 0.4 mm 2 mps 715 mmHg 92%
    18:00 +4°C° 0.4 mm 2 mps 715 mmHg 92%
    19:00 +4°C° 0.4 mm 2 mps 715 mmHg 92%
    20:00 +4°C° 0.3 mm 2 mps 715 mmHg 91%
    21:00 +4°C° 0.3 mm 2 mps 715 mmHg 91%
    22:00 +3°C° 0.3 mm 2 mps 715 mmHg 90%
    23:00 +4°C° 0.4 mm 1 mps 715 mmHg 90%

    Tomorrow, 23 January, Wednesday

    Time Temperature Precipitation Wind Pressure Humidity
    00:00 +4°C° 0.4 mm 1 mps 715 mmHg 90%
    01:00 +4°C° 0.4 mm 1 mps 715 mmHg 90%
    02:00 +4°C° 0.2 mm 1 mps 715 mmHg 89%
    03:00 +4°C° 0.2 mm 1 mps 714 mmHg 89%
    04:00 +4°C° 0.2 mm 1 mps 714 mmHg 88%
    05:00 +3°C° 0 mm 1 mps 714 mmHg 88%
    06:00 +3°C° 0 mm 1 mps 714 mmHg 88%
    07:00 +2°C° 0 mm 1 mps 713 mmHg 87%
    08:00 +2°C° 0.1 mm 2 mps 713 mmHg 86%
    09:00 +3°C° 0.1 mm 2 mps 714 mmHg 85%
    10:00 +4°C° 0.1 mm 2 mps 714 mmHg 84%
    11:00 +4°C° 0.3 mm 3 mps 713 mmHg 83%
    12:00 +4°C° 0.3 mm 3 mps 712 mmHg 81%
    13:00 +5°C° 0.3 mm 3 mps 712 mmHg 80%
    14:00 +5°C° 0.5 mm 3 mps 711 mmHg 80%
    15:00 +5°C° 0.5 mm 3 mps 711 mmHg 81%
    16:00 +6°C° 0.5 mm 2 mps 711 mmHg 81%
    17:00 +5°C° 0.1 mm 2 mps 711 mmHg 82%
    18:00 +4°C° 0.1 mm 2 mps 710 mmHg 83%
    19:00 +3°C° 0.1 mm 2 mps 710 mmHg 84%
    20:00 +3°C° 0 mm 2 mps 710 mmHg 83%
    21:00 +2°C° 0 mm 2 mps 710 mmHg 81%
    22:00 +2°C° 0 mm 2 mps 710 mmHg 80%
    23:00 +2°C° 0 mm 2 mps 709 mmHg 79%

    Day after tomorrow, 24 January, Thursday

    Time Temperature Precipitation Wind Pressure Humidity
    00:00 +1°C° 0 mm 2 mps 709 mmHg 78%
    01:00 +1°C° 0 mm 2 mps 709 mmHg 78%
    02:00 +1°C° 0 mm 2 mps 708 mmHg 79%
    03:00 +2°C° 0 mm 2 mps 708 mmHg 80%
    04:00 +2°C° 0 mm 2 mps 708 mmHg 80%
    05:00 +2°C° 0.2 mm 2 mps 708 mmHg 81%
    06:00 +3°C° 0.2 mm 2 mps 708 mmHg 81%
    07:00 +2°C° 0.2 mm 3 mps 708 mmHg 81%
    08:00 +3°C° 0 mm 3 mps 708 mmHg 78%
    09:00 +4°C° 0 mm 3 mps 709 mmHg 76%
    10:00 +5°C° 0 mm 3 mps 709 mmHg 74%
    11:00 +7°C° 0 mm 3 mps 710 mmHg 69%
    12:00 +8°C° 0 mm 3 mps 710 mmHg 64%
    13:00 +9°C° 0 mm 3 mps 710 mmHg 59%
    14:00 +9°C° 0 mm 2 mps 711 mmHg 62%
    15:00 +9°C° 0 mm 2 mps 711 mmHg 64%
    16:00 +8°C° 0 mm 2 mps 711 mmHg 67%
    17:00 +7°C° 0 mm 2 mps 712 mmHg 70%
    18:00 +6°C° 0 mm 2 mps 712 mmHg 73%
    19:00 +5°C° 0 mm 2 mps 713 mmHg 76%
    20:00 +4°C° 0 mm 2 mps 713 mmHg 76%
    21:00 +4°C° 0 mm 2 mps 714 mmHg 76%
    22:00 +3°C° 0 mm 2 mps 714 mmHg 77%
    23:00 +3°C° 0 mm 2 mps 714 mmHg 76%

    25 January, Friday

    Time Temperature Precipitation Wind Pressure Humidity
    00:00 +1°C° 0 mm 3 mps 714 mmHg 76%
    01:00 +1°C° 0 mm 3 mps 714 mmHg 75%
    02:00 +1°C° 0 mm 3 mps 714 mmHg 76%
    03:00 +1°C° 0 mm 3 mps 714 mmHg 76%
    04:00 0°C° 0 mm 3 mps 714 mmHg 77%
    05:00 0°C° 0 mm 3 mps 714 mmHg 77%
    06:00 +1°C° 0 mm 2 mps 714 mmHg 77%
    07:00 +1°C° 0 mm 2 mps 715 mmHg 78%
    08:00 +3°C° 0 mm 2 mps 715 mmHg 74%
    09:00 +4°C° 0 mm 2 mps 716 mmHg 69%
    10:00 +4°C° 0 mm 3 mps 717 mmHg 65%
    11:00 +6°C° 0 mm 2 mps 717 mmHg 62%
    12:00 +7°C° 0 mm 2 mps 717 mmHg 59%
    13:00 +8°C° 0 mm 2 mps 717 mmHg 55%
    14:00 +8°C° 0 mm 2 mps 717 mmHg 58%
    15:00 +8°C° 0 mm 2 mps 718 mmHg 60%
    16:00 +7°C° 0 mm 2 mps 718 mmHg 62%
    17:00 +6°C° 0 mm 2 mps 718 mmHg 65%
    18:00 +4°C° 0 mm 2 mps 718 mmHg 69%
    19:00 +2°C° 0 mm 2 mps 718 mmHg 72%
    20:00 +2°C° 0 mm 2 mps 719 mmHg 72%
    21:00 +1°C° 0 mm 2 mps 719 mmHg 71%
    22:00 +1°C° 0 mm 2 mps 720 mmHg 71%
    23:00 +1°C° 0 mm 2 mps 720 mmHg 70%

    26 January, Saturday

    Time Temperature Precipitation Wind Pressure Humidity
    00:00 -1°C° 0 mm 2 mps 720 mmHg 68%
    01:00 -1°C° 0 mm 2 mps 720 mmHg 67%
    02:00 -1°C° 0 mm 2 mps 720 mmHg 68%
    03:00 -1°C° 0 mm 2 mps 720 mmHg 69%
    04:00 -2°C° 0 mm 2 mps 720 mmHg 70%
    05:00 -2°C° 0 mm 2 mps 720 mmHg 69%
    06:00 -2°C° 0 mm 2 mps 721 mmHg 68%
    07:00 -2°C° 0 mm 2 mps 721 mmHg 67%
    08:00 +1°C° 0 mm 2 mps 722 mmHg 60%
    09:00 +2°C° 0 mm 2 mps 722 mmHg 53%
    10:00 +4°C° 0 mm 2 mps 723 mmHg 46%
    11:00 +6°C° 0 mm 1 mps 723 mmHg 43%
    12:00 +8°C° 0 mm 1 mps 722 mmHg 39%
    13:00 +9°C° 0 mm 1 mps 722 mmHg 36%
    14:00 +9°C° 0 mm 1 mps 722 mmHg 40%
    15:00 +8°C° 0 mm 1 mps 722 mmHg 44%
    16:00 +8°C° 0 mm 1 mps 722 mmHg 48%
    17:00 +6°C° 0 mm 1 mps 722 mmHg 52%
    18:00 +5°C° 0 mm 1 mps 722 mmHg 55%
    19:00 +3°C° 0 mm 1 mps 722 mmHg 58%
    20:00 +3°C° 0 mm 1 mps 722 mmHg 57%
    21:00 +2°C° 0 mm 1 mps 722 mmHg 56%
    22:00 +2°C° 0 mm 1 mps 722 mmHg 55%
    23:00 +2°C° 0 mm 1 mps 721 mmHg 53%

    27 January, Sunday

    Time Temperature Precipitation Wind Pressure Humidity
    00:00 +2°C° 0 mm 1 mps 721 mmHg 52%
    01:00 +2°C° 0 mm 1 mps 721 mmHg 51%
    02:00 +2°C° 0 mm 1 mps 720 mmHg 53%
    03:00 +2°C° 0 mm 1 mps 720 mmHg 54%
    04:00 +1°C° 0 mm 2 mps 719 mmHg 56%
    05:00 +1°C° 0 mm 2 mps 719 mmHg 56%
    06:00 +2°C° 0 mm 2 mps 719 mmHg 57%
    07:00 +3°C° 0 mm 2 mps 718 mmHg 58%
    08:00 +3°C° 0.6 mm 2 mps 718 mmHg 66%
    09:00 +3°C° 0.6 mm 2 mps 718 mmHg 75%
    10:00 +3°C° 0.6 mm 2 mps 718 mmHg 83%
    11:00 +4°C° 0.8 mm 2 mps 718 mmHg 85%
    12:00 +4°C° 0.8 mm 2 mps 717 mmHg 87%
    13:00 +5°C° 0.8 mm 2 mps 717 mmHg 90%
    14:00 +5°C° 2 mm 2 mps 716 mmHg 91%
    15:00 +5°C° 2 mm 2 mps 716 mmHg 92%
    16:00 +5°C° 2 mm 2 mps 715 mmHg 93%
    17:00 +5°C° 0.6 mm 2 mps 715 mmHg 92%
    18:00 +5°C° 0.6 mm 2 mps 716 mmHg 91%
    19:00 +5°C° 0.6 mm 2 mps 716 mmHg 91%
    20:00 +5°C° 0.1 mm 2 mps 716 mmHg 90%
    21:00 +5°C° 0.1 mm 2 mps 716 mmHg 89%
    22:00 +5°C° 0.1 mm 2 mps 716 mmHg 88%
    23:00 +4°C° 0.1 mm 2 mps 715 mmHg 87%
    Show more